Regional Weather Roundup
Issued by NWS

Home | Current Version | Previous Version | Graphics & Text | Print | Product List | Glossary On
Versions: 1 2 3 4 5 6 7 8 9 10 11 12 13 14 15 16 17 18 19 20 21 22 23 24 25 26 27 28 29 30 31 32 33 34 35 36 37 38 39 40 41 42 43 44 45 46 47 48 49 50
000
ASUS43 KBIS 310810
RWRND

NORTH DAKOTA REGIONAL WEATHER ROUNDUP
NATIONAL WEATHER SERVICE BISMARCK ND
300 AM CDT SUN AUG 31 2014

NOTE: "FAIR" INDICATES FEW OR NO CLOUDS BELOW 12,000 FEET WITH NO
SIGNIFICANT WEATHER AND/OR OBSTRUCTIONS TO VISIBILITY.


NDZ001>003-009>011-017-310900-
NORTHWEST NORTH DAKOTA

CITY           SKY/WX    TMP DP  RH WIND       PRES   REMARKS
WILLISTON      CLOUDY    58  57  97 NW6       29.67F
MINOT AFB      LGT RAIN  60  60 100 SE8       29.63F
$$

NDZ018>021-031>035-040>046-310900-
SOUTHWEST NORTH DAKOTA

CITY           SKY/WX    TMP DP  RH WIND       PRES   REMARKS
BISMARCK       LGT RAIN  61  60  97 E10       29.60F
DICKINSON      CLOUDY    61  59  93 W12       29.67S
GARRISON         N/A     62  61  96 CALM      29.63F
HETTINGER ARPT CLOUDY    59  57  93 W8        29.68F
$$

NDZ004>008-012>016-024-026-027-054-310900-
NORTHEAST NORTH DAKOTA

CITY           SKY/WX    TMP DP  RH WIND       PRES   REMARKS
GRAND FORKS    CLOUDY    60  59  96 SE6       29.73F
GRND FRKS AFB  CLOUDY    58  58 100 SE6       29.73F
DEVILS LAKE    CLOUDY    61  55  82 SE9       29.68F
$$

NDZ022-023-025-028>030-036>039-047>053-310900-
SOUTHEAST NORTH DAKOTA

CITY           SKY/WX    TMP DP  RH WIND       PRES   REMARKS
FARGO          CLOUDY    62  59  90 SE9       29.72F
JAMESTOWN      LGT RAIN  61  59  93 E7        29.67F
$$




USA.gov is the U.S. government's official web portal to all federal, state and local government web resources and services.